Year,Month,Day,Hour,Minute,Value (Times are PST for windgust in km/hr)
2012,03,09,00,06,1.60
2012,03,09,00,08,3.20
2012,03,09,00,09,3.20
2012,03,09,00,10,3.20
2012,03,09,00,11,3.20
2012,03,09,00,12,3.20
2012,03,09,00,13,3.20
2012,03,09,00,14,3.20
2012,03,09,00,15,4.80
2012,03,09,00,16,4.80
2012,03,09,00,17,6.40
2012,03,09,00,18,6.40
2012,03,09,00,19,4.80
2012,03,09,00,20,1.60
2012,03,09,00,21,4.80
2012,03,09,00,22,6.40
2012,03,09,00,23,6.40
2012,03,09,00,24,4.80
2012,03,09,00,25,4.80
2012,03,09,00,26,1.60
2012,03,09,00,27,3.20
2012,03,09,00,28,3.20
2012,03,09,00,30,3.20
2012,03,09,00,31,4.80
2012,03,09,00,32,6.40
2012,03,09,00,33,4.80
2012,03,09,00,34,6.40
2012,03,09,00,35,6.40
2012,03,09,00,36,6.40
2012,03,09,00,37,6.40
2012,03,09,00,38,4.80
2012,03,09,00,39,6.40
2012,03,09,00,40,4.80
2012,03,09,00,41,4.80
2012,03,09,00,42,6.40
2012,03,09,00,43,6.40
2012,03,09,00,44,4.80
2012,03,09,00,45,6.40
2012,03,09,00,46,4.80
2012,03,09,00,47,4.80
2012,03,09,00,48,4.80
2012,03,09,00,49,6.40
2012,03,09,00,50,6.40
2012,03,09,00,51,6.40
2012,03,09,00,52,6.40
2012,03,09,00,53,4.80
2012,03,09,00,54,3.20
2012,03,09,00,55,3.20
2012,03,09,01,02,3.20
2012,03,09,01,03,4.80
2012,03,09,01,04,4.80
2012,03,09,01,05,3.20
2012,03,09,01,06,4.80
2012,03,09,01,07,4.80
2012,03,09,01,08,4.80
2012,03,09,01,09,6.40
2012,03,09,01,10,6.40
2012,03,09,01,11,4.80
2012,03,09,01,12,4.80
2012,03,09,01,13,3.20
2012,03,09,01,14,1.60
2012,03,09,01,15,1.60
2012,03,09,01,19,1.60
2012,03,09,01,21,1.60
2012,03,09,01,23,1.60
2012,03,09,01,24,1.60
2012,03,09,01,25,1.60
2012,03,09,01,33,1.60
2012,03,09,01,35,3.20
2012,03,09,01,36,3.20
2012,03,09,01,37,3.20
2012,03,09,01,38,1.60
2012,03,09,01,40,1.60
2012,03,09,01,41,3.20
2012,03,09,01,42,3.20
2012,03,09,01,43,3.20
2012,03,09,01,44,3.20
2012,03,09,01,45,3.20
2012,03,09,01,46,4.80
2012,03,09,01,47,6.40
2012,03,09,01,48,4.80
2012,03,09,01,49,6.40
2012,03,09,01,50,4.80
2012,03,09,01,51,4.80
2012,03,09,01,52,3.20
2012,03,09,01,53,3.20
2012,03,09,01,54,3.20
2012,03,09,01,55,3.20
2012,03,09,01,56,3.20
2012,03,09,01,59,3.20
2012,03,09,02,00,3.20
2012,03,09,02,01,3.20
2012,03,09,02,02,4.80
2012,03,09,02,03,4.80
2012,03,09,02,04,4.80
2012,03,09,02,05,3.20
2012,03,09,02,06,4.80
2012,03,09,02,07,6.40
2012,03,09,02,08,6.40
2012,03,09,02,09,3.20
2012,03,09,02,10,3.20
2012,03,09,02,11,1.60
2012,03,09,02,12,3.20
2012,03,09,02,13,3.20
2012,03,09,02,14,4.80
2012,03,09,02,15,3.20
2012,03,09,02,16,3.20
2012,03,09,02,18,3.20
2012,03,09,02,19,6.40
2012,03,09,02,20,4.80
2012,03,09,02,21,1.60
2012,03,09,02,22,1.60
2012,03,09,02,23,1.60
2012,03,09,02,24,3.20
2012,03,09,02,25,3.20
2012,03,09,02,26,1.60
2012,03,09,02,27,3.20
2012,03,09,02,28,1.60
2012,03,09,02,29,3.20
2012,03,09,02,30,6.40
2012,03,09,02,31,1.60
2012,03,09,02,32,1.60
2012,03,09,02,34,1.60
2012,03,09,02,35,3.20
2012,03,09,02,36,4.80
2012,03,09,02,37,3.20
2012,03,09,02,38,4.80
2012,03,09,02,39,1.60
2012,03,09,02,40,1.60
2012,03,09,02,43,4.80
2012,03,09,02,44,6.40
2012,03,09,02,45,4.80
2012,03,09,02,46,1.60
2012,03,09,02,47,4.80
2012,03,09,02,48,4.80
2012,03,09,02,49,1.60
2012,03,09,02,50,1.60
2012,03,09,02,53,1.60
2012,03,09,02,54,3.20
2012,03,09,02,55,1.60
2012,03,09,02,56,3.20
2012,03,09,02,57,4.80
2012,03,09,02,58,1.60
2012,03,09,03,08,1.60
2012,03,09,03,09,1.60
2012,03,09,03,11,1.60
2012,03,09,03,13,1.60
2012,03,09,03,14,1.60
2012,03,09,03,15,3.20
2012,03,09,03,16,3.20
2012,03,09,03,17,1.60
2012,03,09,03,19,1.60
2012,03,09,03,20,1.60
2012,03,09,03,33,1.60
2012,03,09,03,35,3.20
2012,03,09,03,36,1.60
2012,03,09,03,39,1.60
2012,03,09,03,40,1.60
2012,03,09,03,41,1.60
2012,03,09,03,42,1.60
2012,03,09,04,01,1.60
2012,03,09,04,03,1.60
2012,03,09,04,06,3.20
2012,03,09,04,07,1.60
2012,03,09,04,08,4.80
2012,03,09,04,09,1.60
2012,03,09,04,12,1.60
2012,03,09,04,14,1.60
2012,03,09,04,22,1.60
2012,03,09,04,24,3.20
2012,03,09,04,25,1.60
2012,03,09,04,26,1.60
2012,03,09,04,27,1.60
2012,03,09,04,28,3.20
2012,03,09,04,29,1.60
2012,03,09,04,31,1.60
2012,03,09,04,32,1.60
2012,03,09,04,33,3.20
2012,03,09,04,34,1.60
2012,03,09,04,35,3.20
2012,03,09,04,36,1.60
2012,03,09,04,37,1.60
2012,03,09,04,38,1.60
2012,03,09,04,45,3.20
2012,03,09,04,46,1.60
2012,03,09,04,47,1.60
2012,03,09,04,50,1.60
2012,03,09,04,51,1.60
2012,03,09,04,52,3.20
2012,03,09,04,53,1.60
2012,03,09,04,54,1.60
2012,03,09,04,57,3.20
2012,03,09,04,58,1.60
2012,03,09,04,59,3.20
2012,03,09,05,00,1.60
2012,03,09,05,01,3.20
2012,03,09,05,02,1.60
2012,03,09,05,05,1.60
2012,03,09,05,06,1.60
2012,03,09,05,07,4.80
2012,03,09,05,08,3.20
2012,03,09,05,09,1.60
2012,03,09,05,15,3.20
2012,03,09,05,16,1.60
2012,03,09,05,17,1.60
2012,03,09,05,20,1.60
2012,03,09,05,23,1.60
2012,03,09,05,26,1.60
2012,03,09,05,27,1.60
2012,03,09,05,28,1.60
2012,03,09,05,29,3.20
2012,03,09,05,30,1.60
2012,03,09,05,31,1.60
2012,03,09,05,32,1.60
2012,03,09,05,33,1.60
2012,03,09,05,34,1.60
2012,03,09,05,35,3.20
2012,03,09,05,36,1.60
2012,03,09,05,37,1.60
2012,03,09,05,40,1.60
2012,03,09,05,41,3.20
2012,03,09,05,42,1.60
2012,03,09,05,49,1.60
2012,03,09,05,50,3.20
2012,03,09,05,51,3.20
2012,03,09,05,52,3.20
2012,03,09,05,53,1.60
2012,03,09,05,54,1.60
2012,03,09,05,56,3.20
2012,03,09,05,58,1.60
2012,03,09,06,00,1.60
2012,03,09,06,01,3.20
2012,03,09,06,02,3.20
2012,03,09,06,03,3.20
2012,03,09,06,04,4.80
2012,03,09,06,05,3.20
2012,03,09,06,06,3.20
2012,03,09,06,07,1.60
2012,03,09,06,08,3.20
2012,03,09,06,09,3.20
2012,03,09,06,10,3.20
2012,03,09,06,11,4.80
2012,03,09,06,12,3.20
2012,03,09,06,13,3.20
2012,03,09,06,14,3.20
2012,03,09,06,15,3.20
2012,03,09,06,16,3.20
2012,03,09,06,18,1.60
2012,03,09,06,19,1.60
2012,03,09,06,21,3.20
2012,03,09,06,22,4.80
2012,03,09,06,23,3.20
2012,03,09,06,24,1.60
2012,03,09,06,25,1.60
2012,03,09,06,26,1.60
2012,03,09,06,27,1.60
2012,03,09,06,28,1.60
2012,03,09,06,29,3.20
2012,03,09,06,30,1.60
2012,03,09,06,31,3.20
2012,03,09,06,32,1.60
2012,03,09,06,33,3.20
2012,03,09,06,34,1.60
2012,03,09,06,35,6.40
2012,03,09,06,36,4.80
2012,03,09,06,37,1.60
2012,03,09,06,38,4.80
2012,03,09,06,39,3.20
2012,03,09,06,40,1.60
2012,03,09,06,41,3.20
2012,03,09,06,42,3.20
2012,03,09,06,43,3.20
2012,03,09,06,44,3.20
2012,03,09,06,45,6.40
2012,03,09,06,46,6.40
2012,03,09,06,47,4.80
2012,03,09,06,48,4.80
2012,03,09,06,49,4.80
2012,03,09,06,50,3.20
2012,03,09,06,55,3.20
2012,03,09,06,56,3.20
2012,03,09,06,57,4.80
2012,03,09,06,58,6.40
2012,03,09,06,59,3.20
2012,03,09,07,01,3.20
2012,03,09,07,02,4.80
2012,03,09,07,06,4.80
2012,03,09,07,07,3.20
2012,03,09,07,18,1.60
2012,03,09,07,26,1.60
2012,03,09,07,32,1.60
2012,03,09,07,48,1.60
2012,03,09,07,58,1.60
2012,03,09,08,02,1.60
2012,03,09,08,05,1.60
2012,03,09,08,06,1.60
2012,03,09,08,08,1.60
2012,03,09,08,10,1.60
2012,03,09,08,11,1.60
2012,03,09,08,12,3.20
2012,03,09,08,13,1.60
2012,03,09,08,14,1.60
2012,03,09,08,23,1.60
2012,03,09,08,35,1.60
2012,03,09,08,36,1.60
2012,03,09,08,39,1.60
2012,03,09,08,40,1.60
2012,03,09,08,46,1.60
2012,03,09,08,47,1.60
2012,03,09,08,56,1.60
2012,03,09,08,58,1.60
2012,03,09,09,06,1.60
2012,03,09,09,09,3.20
2012,03,09,09,10,3.20
2012,03,09,09,11,3.20
2012,03,09,09,12,1.60
2012,03,09,09,16,1.60
2012,03,09,09,18,3.20
2012,03,09,09,19,3.20
2012,03,09,09,20,1.60
2012,03,09,09,21,1.60
2012,03,09,09,22,1.60
2012,03,09,09,23,1.60
2012,03,09,09,24,3.20
2012,03,09,09,25,3.20
2012,03,09,09,26,4.80
2012,03,09,09,27,4.80
2012,03,09,09,28,4.80
2012,03,09,09,29,1.60
2012,03,09,09,30,1.60
2012,03,09,09,31,1.60
2012,03,09,09,32,4.80
2012,03,09,09,33,4.80
2012,03,09,09,34,6.40
2012,03,09,09,35,4.80
2012,03,09,09,36,3.20
2012,03,09,09,37,6.40
2012,03,09,09,38,6.40
2012,03,09,09,39,6.40
2012,03,09,09,40,8.10
2012,03,09,09,41,6.40
2012,03,09,09,42,6.40
2012,03,09,09,43,6.40
2012,03,09,09,44,1.60
2012,03,09,09,45,3.20
2012,03,09,09,46,4.80
2012,03,09,09,47,3.20
2012,03,09,09,48,4.80
2012,03,09,09,49,4.80
2012,03,09,09,50,1.60
2012,03,09,09,51,1.60
2012,03,09,09,52,1.60
2012,03,09,09,53,3.20
2012,03,09,09,54,3.20
2012,03,09,09,55,3.20
2012,03,09,09,56,4.80
2012,03,09,09,57,3.20
2012,03,09,09,58,3.20
2012,03,09,09,59,1.60
2012,03,09,10,00,3.20
2012,03,09,10,01,3.20
2012,03,09,10,02,3.20
2012,03,09,10,03,1.60
2012,03,09,10,06,1.60
2012,03,09,10,08,1.60
2012,03,09,10,10,3.20
2012,03,09,10,11,3.20
2012,03,09,10,12,1.60
2012,03,09,10,13,1.60
2012,03,09,10,15,4.80
2012,03,09,10,16,3.20
2012,03,09,10,17,4.80
2012,03,09,10,18,1.60
2012,03,09,10,19,3.20
2012,03,09,10,20,3.20
2012,03,09,10,22,1.60
2012,03,09,10,23,3.20
2012,03,09,10,24,3.20
2012,03,09,10,25,1.60
2012,03,09,10,26,3.20
2012,03,09,10,27,3.20
2012,03,09,10,28,1.60
2012,03,09,10,29,4.80
2012,03,09,10,30,4.80
2012,03,09,10,31,1.60
2012,03,09,10,33,1.60
2012,03,09,10,34,3.20
2012,03,09,10,35,4.80
2012,03,09,10,36,6.40
2012,03,09,10,37,11.30
2012,03,09,10,38,9.60
2012,03,09,10,39,8.10
2012,03,09,10,40,3.20
2012,03,09,10,41,6.40
2012,03,09,10,42,4.80
2012,03,09,10,43,8.10
2012,03,09,10,44,8.10
2012,03,09,10,45,6.40
2012,03,09,10,46,6.40
2012,03,09,10,47,4.80
2012,03,09,10,48,8.10
2012,03,09,10,49,4.80
2012,03,09,10,50,4.80
2012,03,09,10,51,8.10
2012,03,09,10,52,6.40
2012,03,09,10,53,4.80
2012,03,09,10,54,4.80
2012,03,09,10,55,3.20
2012,03,09,10,56,4.80
2012,03,09,10,57,4.80
2012,03,09,10,58,3.20
2012,03,09,10,59,3.20
2012,03,09,11,01,4.80
2012,03,09,11,02,3.20
2012,03,09,11,03,1.60
2012,03,09,11,04,3.20
2012,03,09,11,05,4.80
2012,03,09,11,06,3.20
2012,03,09,11,07,3.20
2012,03,09,11,08,6.40
2012,03,09,11,09,6.40
2012,03,09,11,10,3.20
2012,03,09,11,11,4.80
2012,03,09,11,12,4.80
2012,03,09,11,13,4.80
2012,03,09,11,14,3.20
2012,03,09,11,15,3.20
2012,03,09,11,16,1.60
2012,03,09,11,17,4.80
2012,03,09,11,18,3.20
2012,03,09,11,19,3.20
2012,03,09,11,20,3.20
2012,03,09,11,21,1.60
2012,03,09,11,22,3.20
2012,03,09,11,23,3.20
2012,03,09,11,25,1.60
2012,03,09,11,26,3.20
2012,03,09,11,27,3.20
2012,03,09,11,28,1.60
2012,03,09,11,29,3.20
2012,03,09,11,30,4.80
2012,03,09,11,31,3.20
2012,03,09,11,32,3.20
2012,03,09,11,33,4.80
2012,03,09,11,34,1.60
2012,03,09,11,37,1.60
2012,03,09,11,38,1.60
2012,03,09,11,39,3.20
2012,03,09,11,40,4.80
2012,03,09,11,41,1.60
2012,03,09,11,42,3.20
2012,03,09,11,43,4.80
2012,03,09,11,44,4.80
2012,03,09,11,45,1.60
2012,03,09,11,46,3.20
2012,03,09,11,47,1.60
2012,03,09,11,48,1.60
2012,03,09,11,49,4.80
2012,03,09,11,50,1.60
2012,03,09,11,52,3.20
2012,03,09,11,56,1.60
2012,03,09,11,57,1.60
2012,03,09,11,58,4.80
2012,03,09,11,59,4.80
2012,03,09,12,00,6.40
2012,03,09,12,01,4.80
2012,03,09,12,02,4.80
2012,03,09,12,03,4.80
2012,03,09,12,04,3.20
2012,03,09,12,05,3.20
2012,03,09,12,06,4.80
2012,03,09,12,07,6.40
2012,03,09,12,08,4.80
2012,03,09,12,09,6.40
2012,03,09,12,10,9.60
2012,03,09,12,11,6.40
2012,03,09,12,12,6.40
2012,03,09,12,13,8.10
2012,03,09,12,14,6.40
2012,03,09,12,15,3.20
2012,03,09,12,16,6.40
2012,03,09,12,17,8.10
2012,03,09,12,18,6.40
2012,03,09,12,19,1.60
2012,03,09,12,20,1.60
2012,03,09,12,21,4.80
2012,03,09,12,22,6.40
2012,03,09,12,23,4.80
2012,03,09,12,24,4.80
2012,03,09,12,25,4.80
2012,03,09,12,26,6.40
2012,03,09,12,27,4.80
2012,03,09,12,28,4.80
2012,03,09,12,29,3.20
2012,03,09,12,30,1.60
2012,03,09,12,31,1.60
2012,03,09,12,32,3.20
2012,03,09,12,33,1.60
2012,03,09,12,35,1.60
2012,03,09,12,36,1.60
2012,03,09,12,37,1.60
2012,03,09,12,40,6.40
2012,03,09,12,41,3.20
2012,03,09,12,42,3.20
2012,03,09,12,43,4.80
2012,03,09,12,44,4.80
2012,03,09,12,45,1.60
2012,03,09,12,46,4.80
2012,03,09,12,47,6.40
2012,03,09,12,48,4.80
2012,03,09,12,49,6.40
2012,03,09,12,50,6.40
2012,03,09,12,51,6.40
2012,03,09,12,52,6.40
2012,03,09,12,53,6.40
2012,03,09,12,54,6.40
2012,03,09,12,55,3.20
2012,03,09,12,56,1.60
2012,03,09,12,57,1.60
2012,03,09,12,58,3.20
2012,03,09,12,59,3.20
2012,03,09,13,00,4.80
2012,03,09,13,02,1.60
2012,03,09,13,03,1.60
2012,03,09,13,05,3.20
2012,03,09,13,06,3.20
2012,03,09,13,07,4.80
2012,03,09,13,08,8.10
2012,03,09,13,09,6.40
2012,03,09,13,10,4.80
2012,03,09,13,11,3.20
2012,03,09,13,12,8.10
2012,03,09,13,13,9.60
2012,03,09,13,14,12.90
2012,03,09,13,15,9.60
2012,03,09,13,16,11.30
2012,03,09,13,17,9.60
2012,03,09,13,18,6.40
2012,03,09,13,19,8.10
2012,03,09,13,20,9.60
2012,03,09,13,21,9.60
2012,03,09,13,22,11.30
2012,03,09,13,23,8.10
2012,03,09,13,24,14.50
2012,03,09,13,25,14.50
2012,03,09,13,26,9.60
2012,03,09,13,27,11.30
2012,03,09,13,28,9.60
2012,03,09,13,29,9.60
2012,03,09,13,30,11.30
2012,03,09,13,31,11.30
2012,03,09,13,32,8.10
2012,03,09,13,33,11.30
2012,03,09,13,34,9.60
2012,03,09,13,35,9.60
2012,03,09,13,36,16.10
2012,03,09,13,37,14.50
2012,03,09,13,38,17.70
2012,03,09,13,39,9.60
2012,03,09,13,40,16.10
2012,03,09,13,41,14.50
2012,03,09,13,42,16.10
2012,03,09,13,43,14.50
2012,03,09,13,44,24.20
2012,03,09,13,45,11.30
2012,03,09,13,46,9.60
2012,03,09,13,47,11.30
2012,03,09,13,48,17.70
2012,03,09,13,49,17.70
2012,03,09,13,50,20.90
2012,03,09,13,51,16.10
2012,03,09,13,52,17.70
2012,03,09,13,53,16.10
2012,03,09,13,54,14.50
2012,03,09,13,55,24.20
2012,03,09,13,56,20.90
2012,03,09,13,57,22.50
2012,03,09,13,58,17.70
2012,03,09,13,59,12.90
2012,03,09,14,00,14.50
2012,03,09,14,01,16.10
2012,03,09,14,02,11.30
2012,03,09,14,03,8.10
2012,03,09,14,04,11.30
2012,03,09,14,05,17.70
2012,03,09,14,06,17.70
2012,03,09,14,07,8.10
2012,03,09,14,08,16.10
2012,03,09,14,09,9.60
2012,03,09,14,10,16.10
2012,03,09,14,11,16.10
2012,03,09,14,12,14.50
2012,03,09,14,13,19.30
2012,03,09,14,14,19.30
2012,03,09,14,15,19.30
2012,03,09,14,16,19.30
2012,03,09,14,17,11.30
2012,03,09,14,18,11.30
2012,03,09,14,19,11.30
2012,03,09,14,20,14.50
2012,03,09,14,21,14.50
2012,03,09,14,22,19.30
2012,03,09,14,23,9.60
2012,03,09,14,24,8.10
2012,03,09,14,25,17.70
2012,03,09,14,26,9.60
2012,03,09,14,27,11.30
2012,03,09,14,28,17.70
2012,03,09,14,29,17.70
2012,03,09,14,30,16.10
2012,03,09,14,31,12.90
2012,03,09,14,32,11.30
2012,03,09,14,33,12.90
2012,03,09,14,34,16.10
2012,03,09,14,35,14.50
2012,03,09,14,36,11.30
2012,03,09,14,37,11.30
2012,03,09,14,38,16.10
2012,03,09,14,39,16.10
2012,03,09,14,40,11.30
2012,03,09,14,41,16.10
2012,03,09,14,42,9.60
2012,03,09,14,43,8.10
2012,03,09,14,44,16.10
2012,03,09,14,45,20.90
2012,03,09,14,46,11.30
2012,03,09,14,47,16.10
2012,03,09,14,48,9.60
2012,03,09,14,49,9.60
2012,03,09,14,50,11.30
2012,03,09,14,51,4.80
2012,03,09,14,52,8.10
2012,03,09,14,53,14.50
2012,03,09,14,54,16.10
2012,03,09,14,55,6.40
2012,03,09,14,56,14.50
2012,03,09,14,57,16.10
2012,03,09,14,58,11.30
2012,03,09,14,59,19.30
2012,03,09,15,00,12.90
2012,03,09,15,01,16.10
2012,03,09,15,02,16.10
2012,03,09,15,03,14.50
2012,03,09,15,04,24.20
2012,03,09,15,05,20.90
2012,03,09,15,06,17.70
2012,03,09,15,07,14.50
2012,03,09,15,08,12.90
2012,03,09,15,09,14.50
2012,03,09,15,10,17.70
2012,03,09,15,11,16.10
2012,03,09,15,12,14.50
2012,03,09,15,13,11.30
2012,03,09,15,14,16.10
2012,03,09,15,15,16.10
2012,03,09,15,16,11.30
2012,03,09,15,17,11.30
2012,03,09,15,18,4.80
2012,03,09,15,19,6.40
2012,03,09,15,20,4.80
2012,03,09,15,21,3.20
2012,03,09,15,22,4.80
2012,03,09,15,23,16.10
2012,03,09,15,24,14.50
2012,03,09,15,25,11.30
2012,03,09,15,26,9.60
2012,03,09,15,27,6.40
2012,03,09,15,28,6.40
2012,03,09,15,29,9.60
2012,03,09,15,30,4.80
2012,03,09,15,31,4.80
2012,03,09,15,32,1.60
2012,03,09,15,33,9.60
2012,03,09,15,34,6.40
2012,03,09,15,35,9.60
2012,03,09,15,36,6.40
2012,03,09,15,38,9.60
2012,03,09,15,39,8.10
2012,03,09,15,40,6.40
2012,03,09,15,41,11.30
2012,03,09,15,42,9.60
2012,03,09,15,43,11.30
2012,03,09,15,44,11.30
2012,03,09,15,45,8.10
2012,03,09,15,46,9.60
2012,03,09,15,47,9.60
2012,03,09,15,48,6.40
2012,03,09,15,49,4.80
2012,03,09,15,50,6.40
2012,03,09,15,51,4.80
2012,03,09,15,52,4.80
2012,03,09,15,53,3.20
2012,03,09,15,54,4.80
2012,03,09,15,55,4.80
2012,03,09,15,56,14.50
2012,03,09,15,57,9.60
2012,03,09,15,58,4.80
2012,03,09,15,59,3.20
2012,03,09,16,00,8.10
2012,03,09,16,01,3.20
2012,03,09,16,02,6.40
2012,03,09,16,03,4.80
2012,03,09,16,04,9.60
2012,03,09,16,05,11.30
2012,03,09,16,06,12.90
2012,03,09,16,07,9.60
2012,03,09,16,08,9.60
2012,03,09,16,09,11.30
2012,03,09,16,10,9.60
2012,03,09,16,11,3.20
2012,03,09,16,12,8.10
2012,03,09,16,13,8.10
2012,03,09,16,14,8.10
2012,03,09,16,15,4.80
2012,03,09,16,16,8.10
2012,03,09,16,17,6.40
2012,03,09,16,18,8.10
2012,03,09,16,19,1.60
2012,03,09,16,20,4.80
2012,03,09,16,21,8.10
2012,03,09,16,22,6.40
2012,03,09,16,23,4.80
2012,03,09,16,25,8.10
2012,03,09,16,26,6.40
2012,03,09,16,27,4.80
2012,03,09,16,28,6.40
2012,03,09,16,29,4.80
2012,03,09,16,30,6.40
2012,03,09,16,31,4.80
2012,03,09,16,32,8.10
2012,03,09,16,33,6.40
2012,03,09,16,34,6.40
2012,03,09,16,35,6.40
2012,03,09,16,36,8.10
2012,03,09,16,37,8.10
2012,03,09,16,38,6.40
2012,03,09,16,39,4.80
2012,03,09,16,40,6.40
2012,03,09,16,41,6.40
2012,03,09,16,42,6.40
2012,03,09,16,43,4.80
2012,03,09,16,44,6.40
2012,03,09,16,45,3.20
2012,03,09,16,46,3.20
2012,03,09,16,47,6.40
2012,03,09,16,48,6.40
2012,03,09,16,49,4.80
2012,03,09,16,50,3.20
2012,03,09,16,51,6.40
2012,03,09,16,52,6.40
2012,03,09,16,53,8.10
2012,03,09,16,54,6.40
2012,03,09,16,55,8.10
2012,03,09,16,56,6.40
2012,03,09,16,57,3.20
2012,03,09,16,58,3.20
2012,03,09,16,59,6.40
2012,03,09,17,00,6.40
2012,03,09,17,01,6.40
2012,03,09,17,02,3.20
2012,03,09,17,03,4.80
2012,03,09,17,04,3.20
2012,03,09,17,05,4.80
2012,03,09,17,06,4.80
2012,03,09,17,07,8.10
2012,03,09,17,08,4.80
2012,03,09,17,09,4.80
2012,03,09,17,10,9.60
2012,03,09,17,11,8.10
2012,03,09,17,12,1.60
2012,03,09,17,13,1.60
2012,03,09,17,14,1.60
2012,03,09,17,15,3.20
2012,03,09,17,16,4.80
2012,03,09,17,17,4.80
2012,03,09,17,18,1.60
2012,03,09,17,19,4.80
2012,03,09,17,20,1.60
2012,03,09,17,21,1.60
2012,03,09,17,22,3.20
2012,03,09,17,23,1.60
2012,03,09,17,24,1.60
2012,03,09,17,25,1.60
2012,03,09,17,26,1.60
2012,03,09,17,28,1.60
2012,03,09,17,29,1.60
2012,03,09,17,30,1.60
2012,03,09,17,31,3.20
2012,03,09,17,32,3.20
2012,03,09,17,33,3.20
2012,03,09,17,34,3.20
2012,03,09,17,35,3.20
2012,03,09,17,36,3.20
2012,03,09,17,37,3.20
2012,03,09,17,38,3.20
2012,03,09,17,39,3.20
2012,03,09,17,40,1.60
2012,03,09,17,41,1.60
2012,03,09,17,43,3.20
2012,03,09,17,44,1.60
2012,03,09,17,46,1.60
2012,03,09,17,47,1.60
2012,03,09,17,48,1.60
2012,03,09,17,49,3.20
2012,03,09,17,50,3.20
2012,03,09,17,51,3.20
2012,03,09,17,53,1.60
2012,03,09,17,55,1.60
2012,03,09,17,58,1.60
2012,03,09,17,59,1.60
2012,03,09,18,01,1.60
2012,03,09,18,02,4.80
2012,03,09,18,03,3.20
2012,03,09,18,04,1.60
2012,03,09,18,07,1.60
2012,03,09,18,08,1.60
2012,03,09,18,10,1.60
2012,03,09,18,11,1.60
2012,03,09,18,12,3.20
2012,03,09,18,16,4.80
2012,03,09,18,17,3.20
2012,03,09,18,18,1.60
2012,03,09,18,21,1.60
2012,03,09,18,28,3.20
2012,03,09,18,29,1.60
2012,03,09,18,32,1.60
2012,03,09,18,41,1.60
2012,03,09,18,58,1.60
2012,03,09,19,21,1.60
2012,03,09,19,22,3.20
2012,03,09,19,23,3.20
2012,03,09,19,24,3.20
2012,03,09,19,25,1.60
2012,03,09,19,26,3.20
2012,03,09,19,27,3.20
2012,03,09,19,28,3.20
2012,03,09,19,29,3.20
2012,03,09,19,30,4.80
2012,03,09,19,31,3.20
2012,03,09,19,32,1.60
2012,03,09,19,33,1.60
2012,03,09,19,34,1.60
2012,03,09,19,38,1.60
2012,03,09,19,39,3.20
2012,03,09,19,40,3.20
2012,03,09,19,41,4.80
2012,03,09,19,42,4.80
2012,03,09,19,43,4.80
2012,03,09,19,44,3.20
2012,03,09,19,45,3.20
2012,03,09,19,46,4.80
2012,03,09,19,47,4.80
2012,03,09,19,48,4.80
2012,03,09,19,49,4.80
2012,03,09,19,50,4.80
2012,03,09,19,51,3.20
2012,03,09,19,52,6.40
2012,03,09,19,53,4.80
2012,03,09,19,54,6.40
2012,03,09,19,55,3.20
2012,03,09,19,56,4.80
2012,03,09,19,57,4.80
2012,03,09,19,58,4.80
2012,03,09,19,59,3.20
2012,03,09,20,00,4.80
2012,03,09,20,01,3.20
2012,03,09,20,02,3.20
2012,03,09,20,03,1.60
2012,03,09,20,04,1.60
2012,03,09,20,05,1.60
2012,03,09,20,06,1.60
2012,03,09,20,07,3.20
2012,03,09,20,08,1.60
2012,03,09,20,10,1.60
2012,03,09,20,13,4.80
2012,03,09,20,14,4.80
2012,03,09,20,15,3.20
2012,03,09,20,16,1.60
2012,03,09,20,17,1.60
2012,03,09,20,18,3.20
2012,03,09,20,19,3.20
2012,03,09,20,21,1.60
2012,03,09,20,22,3.20
2012,03,09,20,25,1.60
2012,03,09,20,26,1.60
2012,03,09,20,27,3.20
2012,03,09,20,28,3.20
2012,03,09,20,29,3.20
2012,03,09,20,30,4.80
2012,03,09,20,31,3.20
2012,03,09,20,32,3.20
2012,03,09,20,33,3.20
2012,03,09,20,34,3.20
2012,03,09,20,35,3.20
2012,03,09,20,36,3.20
2012,03,09,20,37,4.80
2012,03,09,20,38,4.80
2012,03,09,20,39,4.80
2012,03,09,20,40,4.80
2012,03,09,20,41,4.80
2012,03,09,20,42,4.80
2012,03,09,20,43,4.80
2012,03,09,20,44,3.20
2012,03,09,20,45,3.20
2012,03,09,20,46,3.20
2012,03,09,20,47,3.20
2012,03,09,20,48,3.20
2012,03,09,20,49,3.20
2012,03,09,20,50,1.60
2012,03,09,20,51,3.20
2012,03,09,20,52,1.60
2012,03,09,20,53,1.60
2012,03,09,20,54,1.60
2012,03,09,20,55,3.20
2012,03,09,20,56,4.80
2012,03,09,20,57,3.20
2012,03,09,20,58,1.60
2012,03,09,20,59,1.60
2012,03,09,21,00,1.60
2012,03,09,21,03,3.20
2012,03,09,21,04,4.80
2012,03,09,21,05,4.80
2012,03,09,21,06,3.20
2012,03,09,21,07,3.20
2012,03,09,21,08,4.80
2012,03,09,21,09,3.20
2012,03,09,21,10,1.60
2012,03,09,21,12,1.60
2012,03,09,21,14,4.80
2012,03,09,21,15,3.20
2012,03,09,21,16,1.60
2012,03,09,21,17,1.60
2012,03,09,21,21,1.60
2012,03,09,21,48,1.60
2012,03,09,21,49,1.60
2012,03,09,21,53,1.60
2012,03,09,22,48,1.60
2012,03,09,23,23,1.60
2012,03,09,23,24,1.60
2012,03,09,23,25,1.60
2012,03,09,23,30,1.60
2012,03,09,23,31,1.60
2012,03,09,23,32,3.20
2012,03,09,23,33,1.60
2012,03,09,23,34,1.60
2012,03,09,23,35,3.20
2012,03,09,23,38,3.20
2012,03,09,23,39,3.20
2012,03,09,23,40,3.20
2012,03,09,23,41,4.80
2012,03,09,23,42,3.20
2012,03,09,23,43,4.80
2012,03,09,23,44,4.80
2012,03,09,23,45,4.80
2012,03,09,23,46,4.80
2012,03,09,23,47,4.80
2012,03,09,23,48,3.20
2012,03,09,23,49,3.20
2012,03,09,23,50,4.80
2012,03,09,23,51,4.80
2012,03,09,23,52,4.80
2012,03,09,23,53,4.80
2012,03,09,23,54,4.80
2012,03,09,23,55,4.80
2012,03,09,23,56,4.80
2012,03,09,23,57,4.80
2012,03,09,23,58,4.80
2012,03,09,23,59,4.80
